This is the latest recevied weather packets stored in our database for station/object PA5MB-15. If no packets are shown the sender has not sent any weather packets the latest 1 day(s).
| Time | Temp. | Humidity | Pressure | Rain* | Wind** | Luminosity | Snow |
|---|---|---|---|---|---|---|---|
| 1778020524 | 10° C | 83% | 1011 hPa | 0 mm | 0.89 m/s, 356° | 0 W/m² | - |
| 1778020230 | 10.56° C | 83% | 1011.1 hPa | 0 mm | 0.89 m/s, 345° | 0 W/m² | - |
| 1778019932 | 10.56° C | 83% | 1011.1 hPa | 0 mm | 1.34 m/s, 11° | 0 W/m² | - |
| 1778019621 | 10.56° C | 82% | 1011.1 hPa | 0 mm | 0.89 m/s, 12° | 0 W/m² | - |
| 1778019332 | 10.56° C | 82% | 1011.1 hPa | 0 mm | 1.34 m/s, 350° | 0 W/m² | - |
| 1778019040 | 10.56° C | 82% | 1011.1 hPa | 0 mm | 1.34 m/s, 354° | 0 W/m² | - |
| 1778018744 | 10.56° C | 82% | 1011.2 hPa | 0 mm | 1.34 m/s, 350° | 0 W/m² | - |
| 1778018434 | 10.56° C | 82% | 1011.2 hPa | 0 mm | 1.34 m/s, 348° | 0 W/m² | - |
| 1778018132 | 10.56° C | 82% | 1011.2 hPa | 0 mm | 0.89 m/s, 2° | 0 W/m² | - |
| 1778017832 | 10.56° C | 82% | 1011.2 hPa | 0 mm | 1.34 m/s, 0° | 0 W/m² | - |
| 1778017530 | 10.56° C | 82% | 1011.2 hPa | 0 mm | 0.89 m/s, 1° | 0 W/m² | - |
| 1778017223 | 10.56° C | 81% | 1011.2 hPa | 0 mm | 1.79 m/s, 342° | 0 W/m² | - |
| 1778016932 | 10.56° C | 82% | 1011.2 hPa | 0 mm | 1.34 m/s, 343° | 0 W/m² | - |
| 1778016632 | 10.56° C | 82% | 1011.2 hPa | 0 mm | 1.34 m/s, 351° | 0 W/m² | - |
| 1778016330 | 10.56° C | 82% | 1011.3 hPa | 0 mm | 1.34 m/s, 4° | 0 W/m² | - |
| 1778016032 | 10.56° C | 82% | 1011.3 hPa | 0 mm | 1.79 m/s, 11° | 0 W/m² | - |
| 1778015732 | 10.56° C | 82% | 1011.3 hPa | 0 mm | 1.34 m/s, 358° | 0 W/m² | - |
| 1778015444 | 10.56° C | 82% | 1011.3 hPa | 0 mm | 1.34 m/s, 12° | 0 W/m² | - |
| 1778015132 | 10.56° C | 82% | 1011.3 hPa | 0 mm | 1.34 m/s, 345° | 0 W/m² | - |
| 1778014824 | 11.11° C | 82% | 1011.3 hPa | 0 mm | 1.34 m/s, 357° | 0 W/m² | - |
| 1778014532 | 11.11° C | 82% | 1011.3 hPa | 0 mm | 1.79 m/s, 0° | 0 W/m² | - |
| 1778014230 | 11.11° C | 82% | 1011.3 hPa | 0 mm | 1.34 m/s, 347° | 0 W/m² | - |
| 1778013942 | 11.11° C | 82% | 1011.4 hPa | 0 mm | 1.79 m/s, 357° | 0 W/m² | - |
| 1778013624 | 11.11° C | 82% | 1011.4 hPa | 0 mm | 1.79 m/s, 1° | 0 W/m² | - |
| 1778013330 | 11.11° C | 82% | 1011.4 hPa | 0 mm | 1.34 m/s, 11° | 0 W/m² | - |
* Rain latest hour (hover to see other rain measurements)
** Current wind speed in m/s (hover to see current wind gust speed)